Location: Lecco
(45.8566°N, 9.3977°E)
Time: 18:40:03
(UTC+02:00)

Courier 1B Rocket - Pass Details

Date: 26 August 2019
Orbit: 920 x 1202 km, 28.2° (Epoch: 17 September)

Event Time Altitude Azimuth Distance (km) Brightness Sun altitude
Rises 02:18:05 0° 204° (SSW) 3,767 - -32.3°
Reaches altitude 10° 02:23:58 10° 165° (SSE) 2,909 - -32.0°
Maximum altitude 02:24:58 10° 157° (SSE) 2,901 - -32.0°
Drops below altitude 10° 02:25:58 10° 149° (SSE) 2,940 - -31.9°
Exits shadow 02:30:36 - 118° (ESE) 3,628 7.9 -31.6°
Sets 02:32:09 0° 111° (ESE) 3,987 8.2 -31.6°
